Time,TemperatureF,DewpointF,PressureIn,WindDirection,WindDirectionDegrees,WindSpeedMPH,WindSpeedGustMPH,Humidity,HourlyPrecipIn,Conditions,Clouds,dailyrainin,SolarRadiationWatts/m^2,SoftwareType,DateUTC
2013-05-17 00:02:00,73.0,62.0,-100.00,SSE,159,3.0,-999.0,68,0.00,,,-99.99,0.000000,,2013-05-17 04:02:00,
2013-05-17 00:13:00,73.0,62.0,-100.00,SSE,158,3.0,-999.0,69,0.00,,,-99.99,0.000000,,2013-05-17 04:13:00,
2013-05-17 00:23:00,73.0,62.0,-100.00,SSE,158,3.0,-999.0,69,0.00,,,-99.99,0.000000,,2013-05-17 04:23:00,
2013-05-17 00:33:00,72.0,62.0,-100.00,SSE,166,2.0,-999.0,71,0.00,,,-99.99,0.000000,,2013-05-17 04:33:00,
2013-05-17 00:43:00,71.0,62.0,-100.00,SSE,157,2.0,-999.0,73,0.00,,,-99.99,0.000000,,2013-05-17 04:43:00,
2013-05-17 00:53:00,71.0,62.0,-100.00,SSE,157,2.0,-999.0,73,0.00,,,-99.99,0.000000,,2013-05-17 04:53:00,
2013-05-17 01:03:00,71.0,62.0,-100.00,SSE,159,2.0,-999.0,74,0.00,,,-99.99,0.000000,,2013-05-17 05:03:00,
2013-05-17 01:14:00,70.0,62.0,-100.00,SE,143,1.0,-999.0,75,0.00,,,-99.99,0.000000,,2013-05-17 05:14:00,
2013-05-17 01:22:00,70.0,62.0,-100.00,SE,143,1.0,-999.0,75,0.00,,,-99.99,0.000000,,2013-05-17 05:22:00,
2013-05-17 01:32:00,70.0,62.0,-100.00,SE,132,1.0,-999.0,77,0.00,,,-99.99,0.000000,,2013-05-17 05:32:00,
2013-05-17 01:42:00,69.0,63.0,-100.00,SSE,150,1.0,-999.0,78,0.00,,,-99.99,0.000000,,2013-05-17 05:42:00,
2013-05-17 01:52:00,69.0,63.0,-100.00,SSE,150,1.0,-999.0,78,0.00,,,-99.99,0.000000,,2013-05-17 05:52:00,
2013-05-17 02:02:00,69.0,62.0,-100.00,SSE,158,1.0,-999.0,79,0.00,,,-99.99,0.000000,,2013-05-17 06:02:00,
2013-05-17 02:11:00,69.0,62.0,-100.00,ESE,118,1.0,-999.0,80,0.00,,,-99.99,0.000000,,2013-05-17 06:11:00,
2013-05-17 02:22:00,69.0,62.0,-100.00,ESE,118,1.0,-999.0,80,0.00,,,-99.99,0.000000,,2013-05-17 06:22:00,
2013-05-17 02:32:00,68.0,62.0,-100.00,ESE,104,1.0,-999.0,82,0.00,,,-99.99,0.000000,,2013-05-17 06:32:00,
2013-05-17 02:42:00,67.0,62.0,-100.00,ESE,117,1.0,-999.0,83,0.00,,,-99.99,0.000000,,2013-05-17 06:42:00,
2013-05-17 02:52:00,67.0,62.0,-100.00,ESE,117,1.0,-999.0,83,0.00,,,-99.99,0.000000,,2013-05-17 06:52:00,
2013-05-17 03:02:00,67.0,62.0,-100.00,East,86,0.0,-999.0,84,0.00,,,-99.99,0.000000,,2013-05-17 07:02:00,
2013-05-17 03:11:00,67.0,62.0,-100.00,NW,316,0.0,-999.0,85,0.00,,,-99.99,0.000000,,2013-05-17 07:11:00,
2013-05-17 03:21:00,67.0,62.0,-100.00,NW,316,0.0,-999.0,85,0.00,,,-99.99,0.000000,,2013-05-17 07:21:00,
2013-05-17 03:32:00,66.0,62.0,-100.00,NNW,342,0.0,-999.0,86,0.00,,,-99.99,0.000000,,2013-05-17 07:32:00,
2013-05-17 03:43:00,66.0,62.0,-100.00,ENE,73,0.0,-999.0,87,0.00,,,-99.99,0.000000,,2013-05-17 07:43:00,
2013-05-17 03:53:00,66.0,62.0,-100.00,ENE,73,0.0,-999.0,87,0.00,,,-99.99,0.000000,,2013-05-17 07:53:00,
2013-05-17 04:02:00,65.0,62.0,-100.00,NNW,345,1.0,-999.0,88,0.00,,,-99.99,0.000000,,2013-05-17 08:02:00,
2013-05-17 04:12:00,65.0,62.0,-100.00,NNE,15,1.0,-999.0,89,0.00,,,-99.99,0.000000,,2013-05-17 08:12:00,
2013-05-17 04:23:00,65.0,62.0,-100.00,NNE,15,1.0,-999.0,89,0.00,,,-99.99,0.000000,,2013-05-17 08:23:00,
2013-05-17 04:33:00,65.0,62.0,-100.00,NNW,332,1.0,-999.0,90,0.00,,,-99.99,0.000000,,2013-05-17 08:33:00,
2013-05-17 04:42:00,65.0,62.0,-100.00,North,11,1.0,-999.0,91,0.00,,,-99.99,0.000000,,2013-05-17 08:42:00,
2013-05-17 04:52:00,65.0,62.0,-100.00,North,11,1.0,-999.0,91,0.00,,,-99.99,0.000000,,2013-05-17 08:52:00,
2013-05-17 05:02:00,64.0,62.0,-100.00,WNW,292,0.0,-999.0,91,0.00,,,-99.99,0.000000,,2013-05-17 09:02:00,
2013-05-17 05:12:00,64.0,62.0,-100.00,North,356,1.0,-999.0,92,0.00,,,-99.99,0.000000,,2013-05-17 09:12:00,
2013-05-17 05:22:00,64.0,62.0,-100.00,North,356,1.0,-999.0,92,0.00,,,-99.99,0.000000,,2013-05-17 09:22:00,
2013-05-17 05:33:00,63.0,61.0,-100.00,NNW,339,1.0,-999.0,92,0.00,,,-99.99,0.000000,,2013-05-17 09:33:00,
2013-05-17 05:42:00,63.0,61.0,-100.00,NW,313,0.0,-999.0,93,0.00,,,-99.99,0.000000,,2013-05-17 09:42:00,
2013-05-17 05:53:00,63.0,61.0,-100.00,NW,313,0.0,-999.0,93,0.00,,,-99.99,0.000000,,2013-05-17 09:53:00,
2013-05-17 06:03:00,63.0,61.0,-100.00,SSW,198,1.0,-999.0,94,0.00,,,-99.99,0.000000,,2013-05-17 10:03:00,
2013-05-17 06:12:00,63.0,61.0,-100.00,NNE,12,1.0,-999.0,94,0.00,,,-99.99,0.000000,,2013-05-17 10:12:00,
2013-05-17 06:23:00,63.0,61.0,-100.00,NNE,12,1.0,-999.0,94,0.00,,,-99.99,0.000000,,2013-05-17 10:23:00,
2013-05-17 06:33:00,63.0,61.0,-100.00,North,4,1.0,-999.0,94,0.00,,,-99.99,0.000000,,2013-05-17 10:33:00,
2013-05-17 06:42:00,62.0,61.0,-100.00,NNW,332,1.0,-999.0,94,0.00,,,-99.99,0.300000,,2013-05-17 10:42:00,
2013-05-17 06:54:00,62.0,61.0,-100.00,NNW,332,1.0,-999.0,94,0.00,,,-99.99,0.300000,,2013-05-17 10:54:00,
2013-05-17 07:02:00,62.0,61.0,-100.00,North,1,1.0,-999.0,95,0.00,,,-99.99,2.900000,,2013-05-17 11:02:00,
2013-05-17 07:12:00,62.0,61.0,-100.00,North,358,1.0,-999.0,95,0.00,,,-99.99,11.700000,,2013-05-17 11:12:00,
2013-05-17 07:23:00,62.0,61.0,-100.00,North,358,1.0,-999.0,95,0.00,,,-99.99,11.700000,,2013-05-17 11:23:00,
2013-05-17 07:34:00,62.0,61.0,-100.00,North,352,1.0,-999.0,95,0.00,,,-99.99,23.799999,,2013-05-17 11:34:00,
2013-05-17 07:42:00,63.0,62.0,-100.00,North,355,1.0,-999.0,95,0.00,,,-99.99,39.299999,,2013-05-17 11:42:00,
2013-05-17 07:53:00,63.0,62.0,-100.00,North,355,1.0,-999.0,95,0.00,,,-99.99,39.299999,,2013-05-17 11:53:00,
2013-05-17 08:03:00,64.0,62.0,-100.00,North,8,1.0,-999.0,95,0.00,,,-99.99,50.599998,,2013-05-17 12:03:00,
2013-05-17 08:12:00,64.0,63.0,-100.00,SSW,202,0.0,-999.0,95,0.00,,,-99.99,54.700001,,2013-05-17 12:12:00,
2013-05-17 08:23:00,64.0,63.0,-100.00,SSW,202,0.0,-999.0,95,0.00,,,-99.99,54.700001,,2013-05-17 12:23:00,
2013-05-17 08:32:00,66.0,64.0,-100.00,SSE,154,0.0,-999.0,95,0.00,,,-99.99,72.400002,,2013-05-17 12:32:00,
2013-05-17 08:43:00,68.0,65.0,-100.00,SSE,151,2.0,-999.0,90,0.00,,,-99.99,160.600006,,2013-05-17 12:43:00,
2013-05-17 08:53:00,68.0,65.0,-100.00,SSE,151,2.0,-999.0,90,0.00,,,-99.99,160.600006,,2013-05-17 12:53:00,
2013-05-17 09:03:00,71.0,65.0,-100.00,SSE,167,3.0,-999.0,82,0.00,,,-99.99,150.899994,,2013-05-17 13:03:00,
2013-05-17 09:12:00,72.0,65.0,-100.00,South,175,3.0,-999.0,79,0.00,,,-99.99,243.699997,,2013-05-17 13:12:00,
2013-05-17 09:23:00,72.0,65.0,-100.00,South,175,3.0,-999.0,79,0.00,,,-99.99,243.699997,,2013-05-17 13:23:00,
2013-05-17 09:33:00,74.0,65.0,-100.00,South,171,3.0,-999.0,75,0.00,,,-99.99,381.299988,,2013-05-17 13:33:00,
2013-05-17 09:42:00,76.0,66.0,-100.00,South,176,2.0,-999.0,72,0.00,,,-99.99,420.600006,,2013-05-17 13:42:00,
2013-05-17 09:52:00,76.0,66.0,-100.00,South,176,2.0,-999.0,72,0.00,,,-99.99,420.600006,,2013-05-17 13:52:00,
2013-05-17 10:02:00,77.0,66.0,-100.00,SSW,193,2.0,-999.0,69,0.00,,,-99.99,477.200012,,2013-05-17 14:02:00,
2013-05-17 10:13:00,78.0,66.0,-100.00,SSW,195,2.0,-999.0,65,0.00,,,-99.99,533.200012,,2013-05-17 14:13:00,
2013-05-17 10:22:00,78.0,66.0,-100.00,SSW,195,2.0,-999.0,65,0.00,,,-99.99,533.200012,,2013-05-17 14:22:00,
2013-05-17 10:34:00,79.0,65.0,-100.00,South,187,3.0,-999.0,61,0.00,,,-99.99,583.299988,,2013-05-17 14:34:00,
2013-05-17 10:43:00,80.0,65.0,-100.00,South,180,3.0,-999.0,60,0.00,,,-99.99,622.299988,,2013-05-17 14:43:00,
2013-05-17 10:53:00,80.0,65.0,-100.00,South,180,3.0,-999.0,60,0.00,,,-99.99,622.299988,,2013-05-17 14:53:00,
2013-05-17 11:03:00,81.0,65.0,-100.00,SSW,211,2.0,-999.0,58,0.00,,,-99.99,671.500000,,2013-05-17 15:03:00,
2013-05-17 11:14:00,81.0,65.0,-100.00,SSW,208,3.0,-999.0,56,0.00,,,-99.99,712.000000,,2013-05-17 15:14:00,
2013-05-17 11:25:00,81.0,65.0,-100.00,SSW,208,3.0,-999.0,56,0.00,,,-99.99,712.000000,,2013-05-17 15:25:00,
2013-05-17 11:37:00,81.0,64.0,-100.00,SW,235,3.0,-999.0,55,0.00,,,-99.99,755.000000,,2013-05-17 15:37:00,
2013-05-17 11:47:00,83.0,65.0,-100.00,SSE,166,2.0,-999.0,54,0.00,,,-99.99,818.000000,,2013-05-17 15:47:00,
2013-05-17 11:57:00,83.0,65.0,-100.00,SSE,166,2.0,-999.0,54,0.00,,,-99.99,818.000000,,2013-05-17 15:57:00,
2013-05-17 12:07:00,83.0,64.0,-100.00,West,277,3.0,-999.0,52,0.00,,,-99.99,887.000000,,2013-05-17 16:07:00,
2013-05-17 12:14:00,83.0,64.0,-100.00,SW,221,3.0,-999.0,52,0.00,,,-99.99,691.700012,,2013-05-17 16:14:00,
2013-05-17 12:26:00,83.0,64.0,-100.00,SW,221,3.0,-999.0,52,0.00,,,-99.99,691.700012,,2013-05-17 16:26:00,
2013-05-17 12:37:00,83.0,63.0,-100.00,SW,228,3.0,-999.0,50,0.00,,,-99.99,956.000000,,2013-05-17 16:37:00,
2013-05-17 12:49:00,85.0,62.0,-100.00,North,0,3.0,-999.0,46,0.00,,,-99.99,971.000000,,2013-05-17 16:49:00,
2013-05-17 12:56:00,85.0,62.0,-100.00,North,0,3.0,-999.0,46,0.00,,,-99.99,971.000000,,2013-05-17 16:56:00,
2013-05-17 13:08:00,86.0,63.0,-100.00,East,82,3.0,-999.0,46,0.00,,,-99.99,1003.000000,,2013-05-17 17:08:00,
2013-05-17 13:19:00,87.0,63.0,-100.00,ENE,66,3.0,-999.0,44,0.00,,,-99.99,971.000000,,2013-05-17 17:19:00,
2013-05-17 13:30:00,87.0,63.0,-100.00,ENE,66,3.0,-999.0,44,0.00,,,-99.99,971.000000,,2013-05-17 17:30:00,
2013-05-17 13:40:00,86.0,-99.9,-100.00,NE,54,3.0,-999.0,44,0.00,,,-99.99,560.900024,,2013-05-17 17:40:00,
2013-05-17 13:49:00,87.0,62.0,-100.00,NE,53,3.0,-999.0,43,0.00,,,-99.99,1024.000000,,2013-05-17 17:49:00,
2013-05-17 14:00:00,87.0,-99.9,-100.00,NE,53,3.0,-999.0,43,0.00,,,-99.99,1024.000000,,2013-05-17 18:00:00,
2013-05-17 14:09:00,87.0,61.0,-100.00,ESE,103,3.0,-999.0,42,0.00,,,-99.99,868.000000,,2013-05-17 18:09:00,
2013-05-17 14:20:00,88.0,62.0,-100.00,SE,127,2.0,-999.0,41,0.00,,,-99.99,989.000000,,2013-05-17 18:20:00,
2013-05-17 14:30:00,88.0,62.0,-100.00,SE,127,2.0,-999.0,41,0.00,,,-99.99,989.000000,,2013-05-17 18:30:00,
2013-05-17 14:40:00,89.0,-99.9,-100.00,East,101,3.0,-999.0,39,0.00,,,-99.99,946.000000,,2013-05-17 18:40:00,
2013-05-17 14:50:00,-999.0,-99.9,-100.00,East,79,3.0,-999.0,38,0.00,,,-99.99,1005.000000,,2013-05-17 18:50:00,
2013-05-17 15:00:00,89.0,-99.9,-100.00,East,79,3.0,-999.0,38,0.00,,,-99.99,1005.000000,,2013-05-17 19:00:00,
2013-05-17 15:10:00,88.0,61.0,-100.00,NNE,22,4.0,-999.0,39,0.00,,,-99.99,769.000000,,2013-05-17 19:10:00,
2013-05-17 15:20:00,87.0,60.0,-100.00,NNE,21,3.0,-999.0,40,0.00,,,-99.99,667.099976,,2013-05-17 19:20:00,
2013-05-17 15:30:00,87.0,60.0,-100.00,NNE,21,3.0,-999.0,40,0.00,,,-99.99,667.099976,,2013-05-17 19:30:00,
2013-05-17 15:40:00,88.0,60.0,-100.00,NNW,347,3.0,-999.0,39,0.00,,,-99.99,697.400024,,2013-05-17 19:40:00,
2013-05-17 15:50:00,88.0,60.0,-100.00,NE,56,3.0,-999.0,39,0.00,,,-99.99,894.000000,,2013-05-17 19:50:00,
2013-05-17 16:01:00,-999.0,-99.9,-100.00,NE,56,3.0,-999.0,39,0.00,,,-99.99,894.000000,,2013-05-17 20:01:00,
2013-05-17 16:09:00,89.0,60.0,-100.00,North,357,4.0,-999.0,38,0.00,,,-99.99,873.000000,,2013-05-17 20:09:00,
2013-05-17 16:20:00,89.0,60.0,-100.00,NNW,346,3.0,-999.0,37,0.00,,,-99.99,691.500000,,2013-05-17 20:20:00,
2013-05-17 16:30:00,89.0,60.0,-100.00,NNW,346,3.0,-999.0,37,0.00,,,-99.99,691.500000,,2013-05-17 20:30:00,
2013-05-17 16:40:00,90.0,60.0,-100.00,NNE,28,3.0,-999.0,36,0.00,,,-99.99,721.000000,,2013-05-17 20:40:00,
2013-05-17 16:50:00,88.0,59.0,-100.00,East,80,3.0,-999.0,38,0.00,,,-99.99,284.799988,,2013-05-17 20:50:00,
2013-05-17 16:58:00,88.0,59.0,-100.00,East,80,3.0,-999.0,38,0.00,,,-99.99,284.799988,,2013-05-17 20:58:00,
2013-05-17 17:07:00,87.0,59.0,-100.00,East,82,2.0,-999.0,39,0.00,,,-99.99,134.899994,,2013-05-17 21:07:00,
2013-05-17 17:17:00,88.0,59.0,-100.00,NNW,330,3.0,-999.0,38,0.00,,,-99.99,486.399994,,2013-05-17 21:17:00,
2013-05-17 17:26:00,88.0,59.0,-100.00,NNW,330,3.0,-999.0,38,0.00,,,-99.99,486.399994,,2013-05-17 21:26:00,
2013-05-17 17:39:00,90.0,60.0,-100.00,ESE,103,3.0,-999.0,36,0.00,,,-99.99,629.000000,,2013-05-17 21:39:00,
2013-05-17 17:49:00,88.0,59.0,-100.00,ESE,121,2.0,-999.0,37,0.00,,,-99.99,182.899994,,2013-05-17 21:49:00,
2013-05-17 17:58:00,88.0,59.0,-100.00,ESE,121,2.0,-999.0,37,0.00,,,-99.99,182.899994,,2013-05-17 21:58:00,
2013-05-17 18:07:00,86.0,60.0,-100.00,SE,132,1.0,-999.0,40,0.00,,,-99.99,141.000000,,2013-05-17 22:07:00,
2013-05-17 18:17:00,89.0,59.0,-100.00,East,96,1.0,-999.0,37,0.00,,,-99.99,406.700012,,2013-05-17 22:17:00,
2013-05-17 18:28:00,89.0,59.0,-100.00,East,96,1.0,-999.0,37,0.00,,,-99.99,406.700012,,2013-05-17 22:28:00,
2013-05-17 18:38:00,90.0,59.0,-100.00,East,92,2.0,-999.0,35,0.00,,,-99.99,359.100006,,2013-05-17 22:38:00,
2013-05-17 18:47:00,89.0,58.0,-100.00,East,100,2.0,-999.0,35,0.00,,,-99.99,301.299988,,2013-05-17 22:47:00,
2013-05-17 18:55:00,89.0,58.0,-100.00,East,100,2.0,-999.0,35,0.00,,,-99.99,301.299988,,2013-05-17 22:55:00,
2013-05-17 19:04:00,89.0,58.0,-100.00,ESE,116,2.0,-999.0,35,0.00,,,-99.99,246.800003,,2013-05-17 23:04:00,
2013-05-17 19:13:00,89.0,58.0,-100.00,ESE,106,2.0,-999.0,36,0.00,,,-99.99,193.100006,,2013-05-17 23:13:00,
2013-05-17 19:23:00,89.0,58.0,-100.00,ESE,106,2.0,-999.0,36,0.00,,,-99.99,193.100006,,2013-05-17 23:23:00,
2013-05-17 19:37:00,88.0,58.0,-100.00,ESE,122,2.0,-999.0,36,0.00,,,-99.99,121.099998,,2013-05-17 23:37:00,
2013-05-17 19:47:00,86.0,58.0,-100.00,ESE,114,1.0,-999.0,38,0.00,,,-99.99,90.800003,,2013-05-17 23:47:00,
2013-05-17 19:54:00,86.0,58.0,-100.00,ESE,114,1.0,-999.0,38,0.00,,,-99.99,90.800003,,2013-05-17 23:54:00,
2013-05-17 20:02:00,86.0,59.0,-100.00,East,98,1.0,-999.0,40,0.00,,,-99.99,64.199997,,2013-05-18 00:02:00,
2013-05-17 20:14:00,83.0,60.0,-100.00,ENE,69,1.0,-999.0,44,0.00,,,-99.99,25.100000,,2013-05-18 00:14:00,
2013-05-17 20:22:00,83.0,60.0,-100.00,ENE,69,1.0,-999.0,44,0.00,,,-99.99,25.100000,,2013-05-18 00:22:00,
2013-05-17 20:33:00,81.0,61.0,-100.00,WNW,302,4.0,-999.0,50,0.00,,,-99.99,8.200000,,2013-05-18 00:33:00,
2013-05-17 20:44:00,80.0,64.0,-100.00,NW,316,6.0,-999.0,58,0.00,,,-99.99,1.100000,,2013-05-18 00:44:00,
2013-05-17 20:54:00,80.0,64.0,-100.00,NW,316,6.0,-999.0,58,0.00,,,-99.99,1.100000,,2013-05-18 00:54:00,
2013-05-17 21:03:00,79.0,64.0,-100.00,NNW,329,3.0,-999.0,60,0.00,,,-99.99,0.000000,,2013-05-18 01:03:00,
2013-05-17 21:13:00,78.0,64.0,-100.00,ENE,76,2.0,-999.0,62,0.00,,,-99.99,0.000000,,2013-05-18 01:13:00,
2013-05-17 21:24:00,78.0,64.0,-100.00,ENE,76,2.0,-999.0,62,0.00,,,-99.99,0.000000,,2013-05-18 01:24:00,
2013-05-17 21:32:00,78.0,65.0,-100.00,SSW,203,2.0,-999.0,63,0.00,,,-99.99,0.000000,,2013-05-18 01:32:00,
2013-05-17 21:43:00,78.0,65.0,-100.00,SW,217,2.0,-999.0,62,0.00,,,-99.99,0.000000,,2013-05-18 01:43:00,
2013-05-17 21:52:00,78.0,65.0,-100.00,SW,217,2.0,-999.0,62,0.00,,,-99.99,0.000000,,2013-05-18 01:52:00,
2013-05-17 22:02:00,78.0,65.0,-100.00,East,101,2.0,-999.0,64,0.00,,,-99.99,0.000000,,2013-05-18 02:02:00,
2013-05-17 22:12:00,79.0,67.0,-100.00,SE,126,3.0,-999.0,66,0.00,,,-99.99,0.000000,,2013-05-18 02:12:00,
2013-05-17 22:22:00,79.0,67.0,-100.00,SE,126,3.0,-999.0,66,0.00,,,-99.99,0.000000,,2013-05-18 02:22:00,
2013-05-17 22:31:00,78.0,67.0,-100.00,ESE,112,2.0,-999.0,67,0.00,,,-99.99,0.000000,,2013-05-18 02:31:00,
2013-05-17 22:42:00,78.0,67.0,-100.00,ESE,116,2.0,-999.0,68,0.00,,,-99.99,0.000000,,2013-05-18 02:42:00,
2013-05-17 22:54:00,78.0,67.0,-100.00,ESE,116,2.0,-999.0,68,0.00,,,-99.99,0.000000,,2013-05-18 02:54:00,
2013-05-17 23:03:00,77.0,67.0,-100.00,ESE,123,2.0,-999.0,70,0.00,,,-99.99,0.000000,,2013-05-18 03:03:00,
2013-05-17 23:12:00,77.0,67.0,-100.00,SE,124,2.0,-999.0,71,0.00,,,-99.99,0.000000,,2013-05-18 03:12:00,
2013-05-17 23:22:00,77.0,67.0,-100.00,SE,124,2.0,-999.0,71,0.00,,,-99.99,0.000000,,2013-05-18 03:22:00,
2013-05-17 23:33:00,77.0,67.0,-100.00,SE,130,3.0,-999.0,70,0.00,,,-99.99,0.000000,,2013-05-18 03:33:00,
2013-05-17 23:43:00,77.0,67.0,-100.00,SE,128,2.0,-999.0,71,0.00,,,-99.99,0.000000,,2013-05-18 03:43:00,
2013-05-17 23:53:00,77.0,67.0,-100.00,SE,128,2.0,-999.0,71,0.00,,,-99.99,0.000000,,2013-05-18 03:53:00,